M I D A S
Marine Information and Data Acquisition System
Tripno 748 of the Zeeleeuw from 2004-07-14 06:30:53 to 2004-07-14 14:45:08
Back to CruiseResearch ActivitiesStationsMapUnderway DataData graphs

EquipmentUnitsComments
TimeDGPSUTC
LatitudeDGPSDM.mWGS84
LongitudeDGPSDM.mWGS84
SpeedMeteo Stationm/sRelative wind speed
DirectionMeteo StationdegRelative wind direction
TemperatureMeteo Stationdeg CelciusAir temperature
PressureMeteo StationPaAtmospheric pressure
HumidityMeteo Station%Relative humidity
Missing or incorrect values are displayed as -999
Metereological data collected by the RV Zeeleeuw from 2004-07-14 06:30:53 to 2004-07-14 14:45:08
Time Latitude Longitude Speed Direction Temperature Pressure Humidity
2004-07-14 06:31 51°13.633 2°55.965 2.4 193 14.4 101750 84
2004-07-14 06:32 51°13.66 2°55.849 5 163 14.5 101750 83
2004-07-14 06:33 51°13.661 2°55.755 2.9 143 14.5 101750 83
2004-07-14 06:34 51°13.719 2°55.75 4.1 313 14.7 101750 83
2004-07-14 06:35 51°13.81 2°55.651 5.2 321 14.7 101750 82
2004-07-14 06:36 51°13.924 2°55.56 3.8 343 14.7 101740 82
2004-07-14 06:37 51°14.046 2°55.472 3.2 333 14.8 101740 82
2004-07-14 06:38 51°14.193 2°55.354 6 338 14.9 101730 81
2004-07-14 06:39 51°14.325 2°55.143 10.3 326 14.9 101720 80
2004-07-14 06:40 51°14.461 2°54.88 12.1 319 15 101700 81
2004-07-14 06:41 51°14.587 2°54.598 12.1 322 15 101690 81
2004-07-14 06:42 51°14.71 2°54.295 12.2 319 15 101680 81
2004-07-14 06:43 51°14.815 2°53.979 12.6 322 15 101690 81
2004-07-14 06:44 51°14.919 2°53.642 14.3 324 15.1 101690 81
2004-07-14 06:45 51°15.015 2°53.33 14.4 328 15.1 101700 81
2004-07-14 06:46 51°15.108 2°52.99 14.4 326 15 101680 81
2004-07-14 06:47 51°15.188 2°52.665 15.2 330 15.1 101680 81
2004-07-14 06:48 51°15.253 2°52.316 14.9 330 15.1 101680 81
2004-07-14 06:49 51°15.265 2°51.952 17.3 346 15.1 101670 82
2004-07-14 06:50 51°15.235 2°51.587 17.8 349 15.1 101670 81
2004-07-14 06:51 51°15.2 2°51.192 17.1 346 15.2 101680 81
2004-07-14 06:52 51°15.163 2°50.828 16.7 347 15.2 101670 81
2004-07-14 06:54 51°15.117 2°50.457 16.3 350 15.2 101660 81
2004-07-14 06:55 51°15.056 2°50.082 17.4 346 15.2 101680 82
2004-07-14 06:56 51°15.013 2°49.719 15.1 343 15.3 101680 82
2004-07-14 06:57 51°14.973 2°49.356 16.7 345 15.3 101670 82
2004-07-14 06:58 51°14.931 2°48.971 14.2 348 15.2 101660 82
2004-07-14 06:59 51°14.894 2°48.625 14.6 348 15.2 101650 81
2004-07-14 07:00 51°14.854 2°48.256 15.6 346 15.2 101680 82
2004-07-14 07:01 51°14.816 2°47.899 14.4 348 15.3 101660 82
2004-07-14 07:02 51°14.779 2°47.543 16 348 15.2 101670 82
2004-07-14 07:03 51°14.744 2°47.2 16.3 349 15.2 101670 81
2004-07-14 07:04 51°14.706 2°46.844 15.7 349 15.2 101670 82
2004-07-14 07:05 51°14.669 2°46.477 16.3 351 15.3 101680 82
2004-07-14 07:06 51°14.631 2°46.13 16.5 346 15.3 101670 82
2004-07-14 07:07 51°14.595 2°45.785 19.4 349 15.3 101680 82
2004-07-14 07:08 51°14.559 2°45.438 18.7 352 15.3 101690 80
2004-07-14 07:09 51°14.525 2°45.097 17.8 355 15.3 101670 80
2004-07-14 07:10 51°14.487 2°44.731 18.1 348 15.4 101670 80
2004-07-14 07:11 51°14.45 2°44.379 18.3 347 15.4 101670 79
2004-07-14 07:12 51°14.414 2°44.036 16.7 351 15.5 101680 81
2004-07-14 07:13 51°14.38 2°43.668 17.5 351 15.5 101670 80
2004-07-14 07:14 51°14.358 2°43.311 17.2 349 15.5 101660 80
2004-07-14 07:15 51°14.342 2°42.963 17.9 349 15.5 101660 80
2004-07-14 07:16 51°14.324 2°42.572 17.3 349 15.5 101650 80
2004-07-14 07:17 51°14.309 2°42.216 17.7 346 15.5 101670 80
2004-07-14 07:18 51°14.294 2°41.864 17.8 348 15.5 101650 79
2004-07-14 07:19 51°14.279 2°41.515 17.8 343 15.4 101660 79
2004-07-14 07:20 51°14.265 2°41.166 17.5 344 15.5 101640 79
2004-07-14 07:21 51°14.252 2°40.818 15.3 344 15.5 101660 79
2004-07-14 07:22 51°14.238 2°40.471 17 351 15.6 101650 80
2004-07-14 07:23 51°14.225 2°40.125 18 347 15.5 101660 79
2004-07-14 07:24 51°14.212 2°39.782 18.4 347 15.5 101660 79
2004-07-14 07:25 51°14.198 2°39.437 16.9 342 15.5 101660 79
2004-07-14 07:26 51°14.183 2°39.092 15.9 349 15.5 101660 79
2004-07-14 07:27 51°14.132 2°38.723 17.9 350 15.6 101660 79
2004-07-14 07:28 51°14.073 2°38.384 19.4 350 15.6 101660 79
2004-07-14 07:29 51°14.012 2°38.051 17.9 350 15.6 101660 80
2004-07-14 07:30 51°13.939 2°37.711 17.7 360 15.6 101660 79
2004-07-14 07:31 51°13.871 2°37.381 16.3   15.6 101670 79
2004-07-14 07:32 51°13.754 2°37.022 16.3 1 15.7 101690 78
2004-07-14 07:33 51°13.641 2°36.716 16.5 6 15.7 101680 78
2004-07-14 07:34 51°13.528 2°36.408 17.9 6 15.8 101680 79
2004-07-14 07:35 51°13.414 2°36.118 18.9 9 15.7 101670 78
2004-07-14 07:36 51°13.297 2°35.827 16.1 4 15.7 101680 78
2004-07-14 07:37 51°13.174 2°35.526 17.8 1 15.8 101690 79
2004-07-14 07:38 51°13.026 2°35.253 16.2 10 15.7 101680 78
2004-07-14 07:39 51°12.872 2°34.999 17.6 16 15.7 101680 78
2004-07-14 07:40 51°12.717 2°34.751 18.9 15 15.8 101680 78
2004-07-14 07:41 51°12.562 2°34.502 16.1 15 15.7 101680 77
2004-07-14 07:42 51°12.413 2°34.261 17.8 14 15.8 101700 78
2004-07-14 07:43 51°12.257 2°34.009 18.4 11 15.8 101670 77
2004-07-14 07:44 51°12.104 2°33.76 18.8 14 15.8 101680 76
2004-07-14 07:45 51°11.97 2°33.538 15.1 19 15.7 101670 76
2004-07-14 07:46 51°11.925 2°33.422 12.5 357 15.7 101690 75
2004-07-14 07:47 51°11.904 2°33.377 12.3 21 15.7 101680 75
2004-07-14 07:48 51°11.888 2°33.381 10.3 50 15.7 101690 75
2004-07-14 07:49 51°11.881 2°33.409 8.8 76 15.7 101680 77
2004-07-14 07:50 51°11.878 2°33.442 12.2 85 15.7 101680 77
2004-07-14 07:51 51°11.86 2°33.476 11.9 55 15.6 101670 77
2004-07-14 07:52 51°11.828 2°33.486 12.4 27 15.6 101660 77
2004-07-14 07:53 51°11.787 2°33.471 12.9 21 15.6 101680 77
2004-07-14 07:54 51°11.745 2°33.431 12.2 9 15.6 101670 76
2004-07-14 07:55 51°11.709 2°33.372 12.3 5 15.7 101680 77
2004-07-14 07:56 51°11.676 2°33.301 12.2 359 15.8 101680 78
2004-07-14 07:57 51°11.646 2°33.229 13.7 5 15.8 101680 79
2004-07-14 07:58 51°11.613 2°33.164 11.9 4 15.7 101680 78
2004-07-14 07:59 51°11.579 2°33.101 12.2   15.6 101690 77
2004-07-14 08:00 51°11.544 2°33.038 14.6 2 15.6 101680 77
2004-07-14 08:01 51°11.509 2°32.979 12.7 3 15.6 101680 77
2004-07-14 08:02 51°11.478 2°32.915 13.2 359 15.6 101670 77
2004-07-14 08:03 51°11.446 2°32.848 13 5 15.7 101680 78
2004-07-14 08:04 51°11.415 2°32.786 12 2 15.6 101670 76
2004-07-14 08:05 51°11.385 2°32.719 13.9 358 15.6 101680 77
2004-07-14 08:06 51°11.355 2°32.657 12.5 3 15.7 101680 77
2004-07-14 08:07 51°11.325 2°32.598 12.1 7 15.7 101700 77
2004-07-14 08:08 51°11.293 2°32.551 12.3 10 15.6 101690 76
2004-07-14 08:09 51°11.26 2°32.503 12.4 2 15.6 101690 76
2004-07-14 08:10 51°11.226 2°32.452 12.9 3 15.6 101700 76
2004-07-14 08:11 51°11.199 2°32.399 12.1 360 15.6 101680 75
2004-07-14 08:12 51°11.169 2°32.35 12.7 5 15.6 101700 73
2004-07-14 08:13 51°11.139 2°32.298 12.2 3 15.6 101700 72
2004-07-14 08:14 51°11.109 2°32.248 12.8 2 15.7 101690 73
2004-07-14 08:15 51°11.079 2°32.198 12.7 12 15.7 101700 74
2004-07-14 08:16 51°11.048 2°32.154 10.9 17 15.7 101690 74
2004-07-14 08:17 51°11.018 2°32.107 12.7 9 15.8 101700 74
2004-07-14 08:18 51°10.987 2°32.059 10 9 15.7 101700 73
2004-07-14 08:19 51°10.957 2°32.014 11.7 9 15.8 101700 73
2004-07-14 08:20 51°10.928 2°31.969 12.9 11 15.8 101700 74
2004-07-14 08:21 51°10.897 2°31.921 11.5 15 15.8 101700 75
2004-07-14 08:22 51°10.868 2°31.885 12.7 16 15.8 101690 74
2004-07-14 08:23 51°10.841 2°31.846 12.2 1 15.9 101690 74
2004-07-14 08:24 51°10.817 2°31.799 13.1 9 15.9 101700 74
2004-07-14 08:25 51°10.79 2°31.751 12.7 10 15.8 101700 73
2004-07-14 08:26 51°10.764 2°31.704 13.4 6 15.8 101680 72
2004-07-14 08:27 51°10.744 2°31.654 12.6 356 15.8 101690 72
2004-07-14 08:28 51°10.74 2°31.59 12.7 345 15.9 101690 73
2004-07-14 08:29 51°10.752 2°31.535 12.4 332 15.9 101680 73
2004-07-14 08:30 51°10.781 2°31.485 12.8 314 15.9 101660 73
2004-07-14 08:31 51°10.829 2°31.458 12.5 292 15.9 101650 73
2004-07-14 08:32 51°10.868 2°31.463 10.9 290 15.9 101670 73
2004-07-14 08:33 51°10.896 2°31.481 12.8 289 15.9 101680 73
2004-07-14 08:34 51°10.932 2°31.503 10.4 260 15.9 101680 73
2004-07-14 08:35 51°10.992 2°31.555 9.2 236 15.8 101700 72
2004-07-14 08:36 51°11.058 2°31.637 9.1 220 15.8 101700 72
2004-07-14 08:37 51°11.113 2°31.725 10 227 15.8 101700 72
2004-07-14 08:38 51°11.172 2°31.798 8.7 245 15.8 101690 73
2004-07-14 08:39 51°11.214 2°31.874 9.9 200 15.7 101700 73
2004-07-14 08:40 51°11.238 2°31.961 9.7 173 15.8 101710 72
2004-07-14 08:41 51°11.254 2°32.053 11 165 15.8 101700 73
2004-07-14 08:42 51°11.272 2°32.147 9.7 166 15.8 101700 73
2004-07-14 08:43 51°11.289 2°32.239 10.5 167 15.7 101700 72
2004-07-14 08:44 51°11.307 2°32.332 8.7 174 15.7 101700 72
2004-07-14 08:45 51°11.328 2°32.421 7.1 182 15.7 101700 73
2004-07-14 08:46 51°11.352 2°32.505 7.7 178 15.8 101710 73
2004-07-14 08:47 51°11.371 2°32.592 9.1 166 15.8 101700 72
2004-07-14 08:48 51°11.391 2°32.678 8.8 167 15.8 101700 73
2004-07-14 08:49 51°11.415 2°32.758 6.2 189 15.8 101700 73
2004-07-14 08:50 51°11.444 2°32.832 8.7 210 15.8 101700 72
2004-07-14 08:51 51°11.477 2°32.909 7.8 206 15.7 101700 72
2004-07-14 08:52 51°11.508 2°32.984 7.3 200 15.7 101700 72
2004-07-14 08:53 51°11.541 2°33.056 6.5 194 15.8 101700 73
2004-07-14 08:54 51°11.571 2°33.131 5.8 201 15.7 101700 72
2004-07-14 08:55 51°11.601 2°33.211 6.6 179 15.9 101700 71
2004-07-14 08:56 51°11.627 2°33.291 5.5 188 16 101700 71
2004-07-14 08:57 51°11.655 2°33.371 6.8 192 16 101700 71
2004-07-14 08:58 51°11.682 2°33.453 8.1 178 16.1 101690 70
2004-07-14 08:59 51°11.706 2°33.541 10.3 174 16 101690 70
2004-07-14 09:00 51°11.729 2°33.63 7.8 181 15.9 101690 71
2004-07-14 09:01 51°11.751 2°33.716 6.1 194 15.9 101690 71
2004-07-14 09:02 51°11.78 2°33.803 8.9 204 16 101700 71
2004-07-14 09:03 51°11.813 2°33.88 11 218 15.9 101680 70
2004-07-14 09:04 51°11.851 2°33.951 10.8 234 15.9 101680 72
2004-07-14 09:05 51°11.89 2°34.017 9.2 232 15.8 101670 71
2004-07-14 09:06 51°11.925 2°34.08 11.5 220 15.9 101680 72
2004-07-14 09:07 51°11.958 2°34.15 10.4 215 15.8 101670 72
2004-07-14 09:08 51°11.989 2°34.221 10.7 215 15.8 101670 73
2004-07-14 09:09 51°12.023 2°34.291 9.9 239 15.8 101670 73
2004-07-14 09:10 51°12.059 2°34.356 10.5 233 15.8 101670 72
2004-07-14 09:11 51°12.096 2°34.416 11 236 15.8 101660 73
2004-07-14 09:12 51°12.132 2°34.468 10.4 241 15.8 101650 73
2004-07-14 09:13 51°12.168 2°34.515 9.5 253 15.9 101650 72
2004-07-14 09:14 51°12.213 2°34.569 11.4 237 15.8 101650 72
2004-07-14 09:15 51°12.271 2°34.643 11.6 232 15.9 101670 72
2004-07-14 09:16 51°12.336 2°34.731 9.7 231 15.9 101660 71
2004-07-14 09:17 51°12.405 2°34.817 8.4 248 15.8 101660 70
2004-07-14 09:18 51°12.48 2°34.848 11.4 276 15.9 101650 72
2004-07-14 09:19 51°12.532 2°34.86 11.6 287 16 101640 72
2004-07-14 09:20 51°12.568 2°34.879 11.9 281 16 101640 73
2004-07-14 09:21 51°12.597 2°34.907 13.5 285 16 101640 72
2004-07-14 09:22 51°12.622 2°34.941 11.4 279 16.1 101640 73
2004-07-14 09:23 51°12.66 2°34.962 11.7 292 16.1 101650 73
2004-07-14 09:24 51°12.714 2°34.959 12.8 288 16.1 101650 73
2004-07-14 09:25 51°12.757 2°34.966 11.5 284 16.1 101640 73
2004-07-14 09:26 51°12.783 2°34.996 12.9 301 16 101640 73
2004-07-14 09:27 51°12.808 2°35.02 13.5 298 16 101630 73
2004-07-14 09:28 51°12.835 2°35.048 13.9 286 16 101620 72
2004-07-14 09:29 51°12.86 2°35.082 12.5 284 16.1 101640 73
2004-07-14 09:30 51°12.886 2°35.115 14 304 16 101640 72
2004-07-14 09:31 51°12.913 2°35.146 12.3 281 16 101640 73
2004-07-14 09:32 51°12.941 2°35.177 12.8 295 16.1 101650 74
2004-07-14 09:33 51°12.969 2°35.202 12.4 302 16.1 101640 73
2004-07-14 09:34 51°12.997 2°35.225 12.9 300 16.1 101640 74
2004-07-14 09:35 51°13.027 2°35.252 11.4 297 16 101650 74
2004-07-14 09:36 51°13.056 2°35.278 10.1 290 16.1 101640 74
2004-07-14 09:37 51°13.087 2°35.3 12.8 293 16.1 101640 75
2004-07-14 09:38 51°13.113 2°35.327 9.8 288 16.1 101630 74
2004-07-14 09:39 51°13.139 2°35.367 11.6 284 16.1 101650 74
2004-07-14 09:40 51°13.163 2°35.415 13.9 274 16.2 101650 75
2004-07-14 09:41 51°13.185 2°35.463 12.8 275 16.1 101650 75
2004-07-14 09:42 51°13.217 2°35.496 13.8 271 16.1 101650 75
2004-07-14 09:43 51°13.304 2°35.565 6.3 211 16.1 101670 76
2004-07-14 09:44 51°13.421 2°35.824 2.9 175 16 101690 75
2004-07-14 09:45 51°13.534 2°36.172 5.3 168 16.2 101680 76
2004-07-14 09:46 51°13.634 2°36.525 5 171 16.2 101690 74
2004-07-14 09:47 51°13.735 2°36.884 3.7 161 16.3 101690 75
2004-07-14 09:48 51°13.836 2°37.24 2 173 16.3 101690 75
2004-07-14 09:49 51°13.943 2°37.6 2.4 181 16.4 101690 75
2004-07-14 09:50 51°14.002 2°37.965 5.2 137 16.5 101680 74
2004-07-14 09:51 51°14.042 2°38.349 5.3 145 16.4 101690 74
2004-07-14 09:52 51°14.025 2°38.72 11.2 91 16.3 101690 75
2004-07-14 09:53 51°13.863 2°38.955 15.3 52 16.2 101660 75
2004-07-14 09:54 51°13.682 2°38.883 19 21 16.1 101620 75
2004-07-14 09:55 51°13.518 2°38.714 18.7 24 16.1 101630 75
2004-07-14 09:56 51°13.344 2°38.54 17.9 21 16.2 101640 75
2004-07-14 09:57 51°13.182 2°38.376 18.6 22 16.2 101620 75
2004-07-14 09:58 51°13.013 2°38.201 16.9 23 16.2 101630 75
2004-07-14 09:59 51°12.843 2°38.024 17.3 20 16.2 101610 75
2004-07-14 10:00 51°12.678 2°37.855 19.3 18 16.2 101620 75
2004-07-14 10:01 51°12.511 2°37.683 17.7 22 16.2 101630 74
2004-07-14 10:02 51°12.344 2°37.511 19.5 23 16.2 101630 75
2004-07-14 10:03 51°12.165 2°37.328 18.6 19 16.2 101620 74
2004-07-14 10:04 51°11.998 2°37.157 20.3 20 16.2 101610 74
2004-07-14 10:05 51°11.831 2°36.983 18.7 19 16.2 101610 75
2004-07-14 10:06 51°11.652 2°36.798 19.1 21 16.2 101620 76
2004-07-14 10:07 51°11.485 2°36.623 19.7 17 16.3 101620 76
2004-07-14 10:08 51°11.322 2°36.453 18.3 24 16.3 101600 75
2004-07-14 10:09 51°11.156 2°36.28 18.1 23 16.3 101610 75
2004-07-14 10:10 51°10.989 2°36.108 17.5 27 16.3 101610 76
2004-07-14 10:12 51°10.806 2°35.909 19.8 24 16.3 101620 75
2004-07-14 10:13 51°10.649 2°35.727 20.8 21 16.2 101620 75
2004-07-14 10:14 51°10.496 2°35.548 18.7 22 16.3 101620 75
2004-07-14 10:15 51°10.314 2°35.342 17.3 20 16.3 101620 75
2004-07-14 10:16 51°10.151 2°35.159 18   16.2 101620 75
2004-07-14 10:17 51°9.991 2°34.976 17.7 19 16.3 101630 75
2004-07-14 10:18 51°9.834 2°34.794 19.3 19 16.3 101620 75
2004-07-14 10:19 51°9.675 2°34.614 17.4 15 16.3 101630 75
2004-07-14 10:20 51°9.519 2°34.438 18.5 21 16.3 101620 75
2004-07-14 10:21 51°9.352 2°34.27 20.1 30 16.3 101620 75
2004-07-14 10:22 51°9.178 2°34.155 18.1 32 16.3 101600 75
2004-07-14 10:23 51°8.994 2°34.071 18.7 40 16.2 101610 76
2004-07-14 10:24 51°8.802 2°34.102 15.9 57 16.2 101600 76
2004-07-14 10:25 51°8.67 2°34.158 13.9 56 16.2 101640 77
2004-07-14 10:26 51°8.569 2°34.173 13 25 16.2 101650 77
2004-07-14 10:27 51°8.537 2°34.115 13.2 355 16.3 101660 78
2004-07-14 10:28 51°8.556 2°34.123 12.3 300 16.3 101630 77
2004-07-14 10:29 51°8.58 2°34.169 10.7 268 16.2 101640 76
2004-07-14 10:30 51°8.602 2°34.214 8.7 258 16.2 101650 77
2004-07-14 10:31 51°8.624 2°34.259 8.6 258 16.2 101660 76
2004-07-14 10:32 51°8.655 2°34.299 7.2 255 16.2 101650 76
2004-07-14 10:33 51°8.712 2°34.393 8 161 16.1 101670 76
2004-07-14 10:34 51°8.687 2°34.511 9.2 76 16.2 101670 77
2004-07-14 10:35 51°8.638 2°34.514 9.7 13 16.3 101640 77
2004-07-14 10:36 51°8.615 2°34.47 11.6 19 16.3 101660 78
2004-07-14 10:37 51°8.594 2°34.438 12.2 17 16.3 101630 77
2004-07-14 10:38 51°8.582 2°34.409 14.7 15 16.3 101640 77
2004-07-14 10:39 51°8.572 2°34.371 14.1 6 16.3 101630 77
2004-07-14 10:40 51°8.556 2°34.315 11.9 1 16.4 101630 77
2004-07-14 10:41 51°8.532 2°34.253 13.1 9 16.4 101640 76
2004-07-14 10:42 51°8.514 2°34.194 13.9 359 16.4 101620 76
2004-07-14 10:43 51°8.499 2°34.146 14 359 16.4 101630 76
2004-07-14 10:44 51°8.481 2°34.092 14.3 3 16.4 101630 76
2004-07-14 10:45 51°8.461 2°34.035 12.9 4 16.4 101640 76
2004-07-14 10:46 51°8.441 2°33.968 12.4 10 16.4 101630 76
2004-07-14 10:47 51°8.42 2°33.904 14 11 16.4 101620 76
2004-07-14 10:48 51°8.399 2°33.849 13.4 7 16.4 101630 76
2004-07-14 10:49 51°8.381 2°33.799 14.3 10 16.3 101640 76
2004-07-14 10:50 51°8.363 2°33.746 14 16 16.2 101640 76
2004-07-14 10:51 51°8.344 2°33.695 15 13 16.2 101620 78
2004-07-14 10:52 51°8.325 2°33.64 13.9 16 16.1 101650 79
2004-07-14 10:53 51°8.307 2°33.583 13.1 10 16 101640 79
2004-07-14 10:54 51°8.288 2°33.524 14.7 16 16 101640 80
2004-07-14 10:55 51°8.268 2°33.466 14.7 8 16 101630 80
2004-07-14 10:56 51°8.248 2°33.403 13.6 2 16 101640 81
2004-07-14 10:57 51°8.229 2°33.344 14.7 6 16 101640 81
2004-07-14 10:58 51°8.208 2°33.282 13 7 15.8 101660 81
2004-07-14 10:59 51°8.189 2°33.227 12.3 10 15.7 101640 82
2004-07-14 11:00 51°8.168 2°33.169 12.5 7 15.7 101650 82
2004-07-14 11:01 51°8.148 2°33.105 13.6 8 15.8 101640 83
2004-07-14 11:02 51°8.127 2°33.045 13.6 8 15.7 101640 82
2004-07-14 11:03 51°8.107 2°32.987 14.3 5 15.7 101650 83
2004-07-14 11:04 51°8.088 2°32.925 12.8 8 15.7 101640 82
2004-07-14 11:05 51°8.068 2°32.864 13.1 7 15.7 101650 82
2004-07-14 11:06 51°8.047 2°32.804 13.3 5 15.6 101650 83
2004-07-14 11:07 51°8.029 2°32.744 13.7 359 15.6 101640 83
2004-07-14 11:08 51°8.011 2°32.684 12.5 354 15.7 101650 83
2004-07-14 11:09 51°7.992 2°32.619 12.1 342 15.8 101650 83
2004-07-14 11:10 51°7.971 2°32.556 12.8 354 15.8 101640 82
2004-07-14 11:11 51°7.948 2°32.497 12.4 356 15.8 101650 82
2004-07-14 11:12 51°7.923 2°32.437 11.4 355 15.8 101650 82
2004-07-14 11:13 51°7.898 2°32.376 12.3   15.8 101640 82
2004-07-14 11:14 51°7.872 2°32.316 12.7 359 15.8 101650 81
2004-07-14 11:15 51°7.847 2°32.26 11.4 358 15.8 101650 81
2004-07-14 11:16 51°7.824 2°32.201 11.2 356 15.9 101650 81
2004-07-14 11:17 51°7.803 2°32.14 13.1 1 15.9 101640 81
2004-07-14 11:18 51°7.779 2°32.081 14.1 5 15.9 101640 81
2004-07-14 11:19 51°7.759 2°32.028 15.3   15.9 101640 80
2004-07-14 11:20 51°7.738 2°31.972 14 347 15.9 101630 80
2004-07-14 11:21 51°7.734 2°31.948 12.8 347 16 101630 80
2004-07-14 11:22 51°7.738 2°31.927 11.8 358 16 101630 80
2004-07-14 11:23 51°7.707 2°31.941 12 84 15.9 101640 80
2004-07-14 11:24 51°7.704 2°32.053 8.3 161 15.9 101670 81
2004-07-14 11:25 51°7.741 2°32.149 8.9 163 15.8 101660 81
2004-07-14 11:26 51°7.772 2°32.24 8.7 155 15.7 101650 81
2004-07-14 11:27 51°7.797 2°32.325 10.2 155 15.7 101650 82
2004-07-14 11:28 51°7.821 2°32.409 8.8 155 15.6 101650 82
2004-07-14 11:29 51°7.847 2°32.489 8.1 174 15.6 101660 83
2004-07-14 11:30 51°7.878 2°32.562 7.1 180 15.5 101660 83
2004-07-14 11:31 51°7.908 2°32.639 8.6 161 15.5 101670 84
2004-07-14 11:32 51°7.935 2°32.719 9.2 168 15.5 101670 83
2004-07-14 11:33 51°7.963 2°32.797 8.3 165 15.5 101660 84
2004-07-14 11:34 51°7.993 2°32.871 5.5 174 15.5 101660 85
2004-07-14 11:35 51°8.025 2°32.943 6.2 181 15.6 101670 84
2004-07-14 11:36 51°8.056 2°33.018 8.2 177 15.6 101660 84
2004-07-14 11:37 51°8.086 2°33.094 6.9 184 15.6 101670 84
2004-07-14 11:38 51°8.113 2°33.17 8.5 165 15.5 101660 84
2004-07-14 11:39 51°8.142 2°33.246 8.7 170 15.4 101660 84
2004-07-14 11:40 51°8.17 2°33.322 9.6 162 15.4 101660 85
2004-07-14 11:41 51°8.196 2°33.4 9.3 149 15.4 101650 85
2004-07-14 11:42 51°8.218 2°33.477 9.9 149 15.3 101640 85
2004-07-14 11:43 51°8.243 2°33.55 11.2 158 15.4 101640 85
2004-07-14 11:44 51°8.269 2°33.629 11.1 160 15.4 101640 85
2004-07-14 11:45 51°8.294 2°33.708 11.5 164 15.4 101640 85
2004-07-14 11:46 51°8.321 2°33.795 10.3 154 15.4 101650 85
2004-07-14 11:47 51°8.351 2°33.878 8.7 181 15.5 101650 85
2004-07-14 11:48 51°8.382 2°33.955 7.7 174 15.4 101650 85
2004-07-14 11:49 51°8.411 2°34.035 7.5 162 15.5 101650 85
2004-07-14 11:50 51°8.436 2°34.113 10.9 160 15.6 101640 85
2004-07-14 11:51 51°8.461 2°34.192 10.1 145 15.5 101630 84
2004-07-14 11:52 51°8.485 2°34.27 9.7 168 15.6 101640 85
2004-07-14 11:53 51°8.511 2°34.347 11 168 15.5 101630 84
2004-07-14 11:54 51°8.538 2°34.424 8.7 166 15.5 101630 84
2004-07-14 11:55 51°8.566 2°34.5 11.3 164 15.5 101630 84
2004-07-14 11:56 51°8.594 2°34.582 10.5 153 15.5 101630 84
2004-07-14 11:57 51°8.618 2°34.661 11.2 165 15.5 101630 85
2004-07-14 11:58 51°8.644 2°34.746 9.7 160 15.4 101630 85
2004-07-14 11:59 51°8.671 2°34.825 9.7 179 15.4 101640 85
2004-07-14 12:00 51°8.701 2°34.896 9.1 173 15.4 101640 86
2004-07-14 12:01 51°8.733 2°34.961 6 189 15.4 101640 86
2004-07-14 12:02 51°8.768 2°35.022 6.5 183 15.5 101640 87
2004-07-14 12:03 51°8.806 2°35.083 6.8 202 15.6 101640 87
2004-07-14 12:04 51°8.856 2°35.138 9.9 232 15.5 101640 86
2004-07-14 12:05 51°8.902 2°35.172 7 253 15.4 101630 86
2004-07-14 12:06 51°8.939 2°35.195 7.3 258 15.4 101620 87
2004-07-14 12:07 51°8.969 2°35.213 10.8 262 15.4 101620 88
2004-07-14 12:08 51°8.993 2°35.231 11 275 15.4 101630 88
2004-07-14 12:09 51°9.015 2°35.252 11.2 274 15.5 101630 89
2004-07-14 12:10 51°9.036 2°35.275 10.9 268 15.4 101620 88
2004-07-14 12:11 51°9.055 2°35.299 10.7 277 15.4 101620 89
2004-07-14 12:12 51°9.074 2°35.327 10.8 273 15.4 101630 89
2004-07-14 12:13 51°9.093 2°35.358 6.9 258 15.3 101620 89
2004-07-14 12:14 51°9.117 2°35.384 8.9 263 15.3 101620 90
2004-07-14 12:15 51°9.144 2°35.395 9.4 288 15.2 101630 89
2004-07-14 12:16 51°9.173 2°35.385 11.4 306 15.3 101610 90
2004-07-14 12:18 51°9.197 2°35.367 11.2 230 15.2 101620 90
2004-07-14 12:18 51°9.218 2°35.348 10.6 311 15.2 101610 90
2004-07-14 12:20 51°9.241 2°35.323 10.8 326 15.3 101620 91
2004-07-14 12:21 51°9.256 2°35.294 10.9 325 15.3 101610 91
2004-07-14 12:21 51°9.263 2°35.267 10.2 341 15.2 101600 91
2004-07-14 12:22 51°9.261 2°35.247 10.2 6 15.2 101620 91
2004-07-14 12:24 51°9.244 2°35.252 10.9 51 15.2 101610 92
2004-07-14 12:25 51°9.219 2°35.293 10 66 15.3 101610 92
2004-07-14 12:26 51°9.167 2°35.338 13.3 51 15.2 101610 92
2004-07-14 12:26 51°9.082 2°35.387 12.4 53 15.2 101590 92
2004-07-14 12:27 51°8.979 2°35.44 11.6 54 15.2 101600 93
2004-07-14 12:29 51°8.877 2°35.518 12.8 83 15.3 101600 93
2004-07-14 12:30 51°8.855 2°35.663 8.9 135 15.2 101610 93
2004-07-14 12:31 51°8.867 2°35.763 8.2 145 15.2 101630 93
2004-07-14 12:32 51°8.883 2°35.848 9.9 149 15.2 101620 93
2004-07-14 12:33 51°8.898 2°35.927 9.2 151 15.2 101610 93
2004-07-14 12:34 51°8.914 2°36.013 9.2 146 15.2 101610 94
2004-07-14 12:34 51°8.928 2°36.101 9.7 145 15.2 101600 93
2004-07-14 12:35 51°8.941 2°36.189 10.8 144 15.2 101600 93
2004-07-14 12:37 51°8.955 2°36.269 9.5 153 15.2 101600 94
2004-07-14 12:38 51°8.967 2°36.345 10.6 134 15.2 101590 94
2004-07-14 12:38 51°8.975 2°36.419 9.2 129 15.2 101600 94
2004-07-14 12:39 51°8.986 2°36.497 8.9 147 15.3 101600 94
2004-07-14 12:41 51°8.996 2°36.589 8.1 146 15.3 101610 94
2004-07-14 12:42 51°9.009 2°36.676 9.9 145 15.4 101610 94
2004-07-14 12:43 51°9.023 2°36.76 9.1 139 15.4 101610 94
2004-07-14 12:44 51°9.031 2°36.84 10.3 133 15.3 101610 94
2004-07-14 12:45 51°9.034 2°36.919 11.4 137 15.3 101600 94
2004-07-14 12:46 51°9.046 2°37.004 10 142 15.3 101600 94
2004-07-14 12:47 51°9.063 2°37.092 9.9 141 15.3 101600 94
2004-07-14 12:48 51°9.075 2°37.178 9.1 140 15.3 101600 94
2004-07-14 12:49 51°9.089 2°37.259 9.8 128 15.4 101600 94
2004-07-14 12:49 51°9.1 2°37.335 10.8 146 15.4 101590 94
2004-07-14 12:51 51°9.116 2°37.416 11.3 160 15.3 101590 94
2004-07-14 12:52 51°9.135 2°37.496 8.4 148 15.3 101600 94
2004-07-14 12:53 51°9.15 2°37.58 11.6 148 15.4 101600 94
2004-07-14 12:54 51°9.166 2°37.661 11.5 154 15.4 101590 94
2004-07-14 12:55 51°9.183 2°37.743 9.1 143 15.4 101580 94
2004-07-14 12:56 51°9.198 2°37.823 8.9 151 15.4 101580 93
2004-07-14 12:57 51°9.214 2°37.904 11.8 138 15.4 101580 93
2004-07-14 12:58 51°9.225 2°37.984 8.1 152 15.5 101590 93
2004-07-14 12:59 51°9.242 2°38.064 11.3 149 15.6 101590 93
2004-07-14 13:00 51°9.26 2°38.145 9.9 151 15.5 101580 93
2004-07-14 13:01 51°9.28 2°38.227 7.5 164 15.6 101600 93
2004-07-14 13:02 51°9.304 2°38.304 8.7 134 15.6 101590 92
2004-07-14 13:03 51°9.326 2°38.381 7.2 163 15.7 101590 93
2004-07-14 13:04 51°9.357 2°38.455 8.7 173 15.7 101590 92
2004-07-14 13:05 51°9.39 2°38.538 9.7 164 15.7 101600 92
2004-07-14 13:06 51°9.421 2°38.627 8.4 158 15.7 101600 91
2004-07-14 13:07 51°9.453 2°38.718 8.1 163 15.7 101590 91
2004-07-14 13:08 51°9.494 2°38.786 9.2 212 15.7 101600 91
2004-07-14 13:09 51°9.534 2°38.818 9.9 230 15.8 101590 91
2004-07-14 13:10 51°9.568 2°38.833 8.6 241 15.8 101580 91
2004-07-14 13:11 51°9.595 2°38.84 6.3 255 15.9 101590 91
2004-07-14 13:12 51°9.616 2°38.844 10.1 265 15.9 101580 90
2004-07-14 13:13 51°9.633 2°38.848 9.3 274 16 101590 91
2004-07-14 13:14 51°9.649 2°38.854 11.9 269 16 101580 90
2004-07-14 13:15 51°9.664 2°38.864 12.3 265 15.9 101580 89
2004-07-14 13:16 51°9.68 2°38.875 13.1 274 16 101580 90
2004-07-14 13:17 51°9.694 2°38.888 13.7 273 16 101580 89
2004-07-14 13:18 51°9.708 2°38.903 10.7 268 16.1 101590 89
2004-07-14 13:19 51°9.73 2°38.906 12 275 16.2 101590 88
2004-07-14 13:20 51°9.756 2°38.897 12.4 282 16.3 101580 88
2004-07-14 13:21 51°9.783 2°38.886 13.2   16.3 101570 87
2004-07-14 13:22 51°9.811 2°38.873 11.6 288 16.4 101570 87
2004-07-14 13:23 51°9.836 2°38.856 11.3 285 16.5 101580 87
2004-07-14 13:24 51°9.861 2°38.839 12 293 16.5 101570 86
2004-07-14 13:25 51°9.885 2°38.82 11.8 305 16.5 101570 86
2004-07-14 13:26 51°9.907 2°38.802 12   16.6 101570 86
2004-07-14 13:27 51°9.929 2°38.79 12.5 296 16.5 101560 85
2004-07-14 13:28 51°9.949 2°38.794 13 292 16.5 101560 85
2004-07-14 13:29 51°9.966 2°38.804 10.8   16.5 101570 85
2004-07-14 13:30 51°9.981 2°38.821 13.6 276 16.6 101570 85
2004-07-14 13:31 51°9.995 2°38.842 7.9 254 16.6 101580 85
2004-07-14 13:32 51°10.012 2°38.864 13.8 269 16.7 101570 86
2004-07-14 13:33 51°10.058 2°38.866 7.3 256 16.6 101580 85
2004-07-14 13:34 51°10.15 2°38.912 5 220 16.6 101590 85
2004-07-14 13:35 51°10.228 2°39.123 3.8 147 16.7 101600 86
2004-07-14 13:36 51°10.286 2°39.444 6.3 145 16.7 101600 85
2004-07-14 13:37 51°10.345 2°39.794 5.2 145 16.7 101600 85
2004-07-14 13:38 51°10.404 2°40.139 4.2 136 16.7 101600 85
2004-07-14 13:39 51°10.462 2°40.495 7.4 154 16.7 101600 85
2004-07-14 13:40 51°10.52 2°40.844 4.6 154 16.7 101600 85
2004-07-14 13:41 51°10.574 2°41.194 3.3 130 16.7 101600 85
2004-07-14 13:42 51°10.645 2°41.541 3.7 181 16.8 101600 85
2004-07-14 13:43 51°10.747 2°41.861 2.9 169 16.8 101600 85
2004-07-14 13:44 51°10.843 2°42.19 3 209 16.9 101590 85
2004-07-14 13:45 51°10.934 2°42.519 2.9 176 17 101590 84
2004-07-14 13:46 51°11.019 2°42.856 2.7 172 17.1 101590 84
2004-07-14 13:47 51°11.098 2°43.199 4.2 145 17.1 101590 84
2004-07-14 13:48 51°11.175 2°43.54 3.8 149 17 101590 83
2004-07-14 13:49 51°11.256 2°43.881 3.2 163 17 101590 84
2004-07-14 13:50 51°11.332 2°44.218 3.4 147 17 101590 84
2004-07-14 13:51 51°11.408 2°44.569 2.3 145 16.9 101580 84
2004-07-14 13:52 51°11.486 2°44.91 3.9 149 16.9 101590 84
2004-07-14 13:53 51°11.561 2°45.254 6.4 156 16.9 101580 84
2004-07-14 13:54 51°11.635 2°45.596 5.5 163 16.8 101590 84
2004-07-14 13:55 51°11.713 2°45.934 6.5 179 16.8 101590 84
2004-07-14 13:56 51°11.794 2°46.272 6 166 16.8 101580 84
2004-07-14 13:57 51°11.869 2°46.604 4.5 168 16.8 101580 84
2004-07-14 13:58 51°11.949 2°46.94 4.1 140 16.9 101580 84
2004-07-14 13:59 51°12.028 2°47.278 6.1 157 16.9 101570 84
2004-07-14 14:00 51°12.12 2°47.611 3.3 176 16.9 101580 84
2004-07-14 14:01 51°12.213 2°47.936 5.6 167 16.9 101580 84
2004-07-14 14:02 51°12.309 2°48.258 6.1 173 17.3 101580 85
2004-07-14 14:03 51°12.404 2°48.574 3.4 174 17.6 101580 82
2004-07-14 14:04 51°12.503 2°48.897 4 177 17.7 101570 82
2004-07-14 14:05 51°12.603 2°49.223 5.4 200 18 101570 82
2004-07-14 14:06 51°12.699 2°49.544 7 174 18.1 101580 80
2004-07-14 14:07 51°12.795 2°49.872 4.7 174 18.1 101570 79
2004-07-14 14:08 51°12.888 2°50.191 4.4 174 18 101580 80
2004-07-14 14:09 51°12.983 2°50.52 4.6 183 18 101580 79
2004-07-14 14:10 51°13.093 2°50.828 6.6 216 17.9 101580 78
2004-07-14 14:11 51°13.212 2°51.134 5.4 217 17.5 101560 79
2004-07-14 14:12 51°13.33 2°51.445 5.7 209 17.3 101570 80
2004-07-14 14:13 51°13.453 2°51.738 3.7 199 17.2 101570 81
2004-07-14 14:14 51°13.572 2°52.041 4.9 227 17.1 101570 82
2004-07-14 14:15 51°13.689 2°52.333 4.1 209 17 101560 83
2004-07-14 14:16 51°13.808 2°52.638 3.6 222 16.9 101570 83
2004-07-14 14:17 51°13.931 2°52.937 6.4 227 16.9 101570 84
2004-07-14 14:18 51°14.038 2°53.213 4.9 179 16.9 101570 84
2004-07-14 14:19 51°14.063 2°53.379 6.5 192 16.9 101560 85
2004-07-14 14:20 51°14.094 2°53.476 9.3 212 17 101570 85
2004-07-14 14:21 51°14.119 2°53.53 11 218 17 101560 86
2004-07-14 14:22 51°14.134 2°53.561 12.8 242 16.9 101560 86
2004-07-14 14:23 51°14.152 2°53.581 8.9 249 16.9 101540 86
2004-07-14 14:24 51°14.168 2°53.594 8.4 254 16.9 101550 86
2004-07-14 14:25 51°14.18 2°53.604 14.6 260 16.9 101550 86
2004-07-14 14:26 51°14.182 2°53.621 10.4 254 16.9 101550 86
2004-07-14 14:27 51°14.174 2°53.642 11.2 249 16.8 101540 86
2004-07-14 14:28 51°14.171 2°53.661 12.7 249 16.8 101550 86
2004-07-14 14:29 51°14.176 2°53.681 8.5 258 16.8 101540 86
2004-07-14 14:30 51°14.184 2°53.698 16 265 16.8 101550 86
2004-07-14 14:31 51°14.192 2°53.712 14.7 271 16.8 101550 86
2004-07-14 14:32 51°14.221 2°53.719 10.9 270 16.8 101560 86
2004-07-14 14:33 51°14.283 2°53.795 4.1 174 16.8 101570 87
2004-07-14 14:34 51°14.319 2°54.059 3.2 173 16.9 101580 87
2004-07-14 14:35 51°14.371 2°54.38 3.4 195 17.2 101580 87
2004-07-14 14:36 51°14.419 2°54.693 8.1 148 17.3 101570 85
2004-07-14 14:37 51°14.376 2°55.001 7.4 112 17.2 101580 85
2004-07-14 14:38 51°14.267 2°55.258 7 82 17.1 101580 85
2004-07-14 14:39 51°14.134 2°55.411 4.4 19 17 101560 86
2004-07-14 14:40 51°14.016 2°55.498 6.3 24 16.9 101570 86
2004-07-14 14:41 51°13.904 2°55.581 9.7 66 16.9 101570 85
2004-07-14 14:42 51°13.794 2°55.664 2.9 356 16.9 101570 85
2004-07-14 14:43 51°13.712 2°55.778 5.5 118 16.9 101560 85
2004-07-14 14:44 51°13.665 2°55.892 4.8 131 16.9 101570 85